Location: *
(21.4865°S, 45.4951°W)
Time: 09:35:12
(UTC+00:00)

Daily predictions for brighter satellites

Satellite Brightness Start Highest point End
(mag) Time Altitude Azimuth Time Altitude Azimuth Time Altitude Azimuth
Orbus 7S 3.5 21:45:52 10° SW 21:47:39 32° SSE 21:50:50 10° E
Cosmos 1356 Rocket 3.2 21:44:43 10° S 21:48:34 64° E 21:52:22 10° NNE
BREEZE M DEB (TANK) 2.2 21:46:45 10° NNW 21:48:55 25° NE 21:50:48 10° ESE
Cosmos 1862 3.4 21:45:54 10° NNE 21:49:24 45° E 21:52:58 10° SSE
Cosmos 2084 3.8 21:47:52 10° SSW 21:52:01 48° ESE 21:56:08 10° NE
SL-08 R/B 4.2 21:52:05 10° NE 21:56:21 32° ESE 22:00:41 10° SSE
Intelsat 5-3 Rocket 2.4 21:55:54 10° NW 21:58:21 37° NNE 22:02:25 10° E
SPOT 1/Viking Rocket 3.5 21:55:01 10° SSE 22:00:11 77° ENE 22:05:19 10° N
Cosmos 1782 3.3 21:57:35 10° SSE 22:00:54 33° E 22:04:11 10° NNE
SJ-6B 4.3 22:02:52 10° ESE 22:04:39 13° E 22:04:54 13° E
Cosmos 1602 4.4 22:01:59 10° NNW 22:04:54 43° W 22:07:53 10° S
Cosmos 1656 4.4 22:01:24 10° S 22:06:14 32° ESE 22:10:13 14° NE
Cosmos 1536 Rocket 3.5 22:03:10 10° N 22:07:30 88° E 22:11:52 10° S
Nadezhda 4 Rocket 4.0 22:03:30 10° N 22:09:39 86° E 22:15:50 10° S
Cosmos 1833 Rocket 3.5 22:07:47 10° NNW 22:13:16 55° WSW 22:18:48 10° S
Spot 4 Rocket 4.0 22:08:16 10° SSE 22:13:26 80° ENE 22:18:31 10° N
RESURS DK-1 3.1 22:11:41 10° NNE 22:15:04 27° ENE 22:18:29 10° SE
SJ-7 4.4 22:13:56 10° S 22:17:42 73° WSW 22:21:24 10° NNW
CZ-2D R/B 4.2 22:16:34 10° S 22:20:24 51° WSW 22:24:16 10° NNW
ATLAS 5 CENTAUR R/B 2.8 22:14:32 10° N 22:20:59 52° ENE 22:27:55 10° SE
SL-4 R/B 3.0 22:18:52 10° N 22:22:01 23° NE 22:22:34 23° ENE
PSLV R/B 3.5 22:18:41 10° S 22:22:51 79° WSW 22:26:57 10° NNW
Cosmos 2195 Rocket 4.5 22:17:27 10° N 22:23:44 71° E 22:30:01 10° S
Cosmos 2098 Rocket 2.3 22:22:20 10° S 22:26:01 84° E 22:28:28 16° N
NOSS 3-2 (C) 3.8 22:21:19 10° S 22:26:19 34° ESE 22:28:39 23° ENE
Palapa 6 Rocket 3.4 22:21:29 10° WNW 22:26:20 79° NNE 22:31:04 16° E
Palapa B4 Rocket 3.2 22:22:39 10° W 22:26:22 53° N 22:28:50 24° ENE
Meteor 2-3 Rocket 3.8 22:24:58 10° N 22:30:24 56° E 22:35:53 10° SSE
YAOGAN 11 4.2 22:34:04 12° N 22:38:01 72° W 22:42:16 10° SSW
Lacrosse 4 Rocket 2.5 22:34:39 10° SW 22:38:38 41° WNW 22:42:13 12° N
NOAA 6 4.1 22:35:45 10° S 22:40:57 83° WSW 22:46:07 10° NNW
YAOGAN 1 4.0 22:38:24 10° S 22:42:24 38° WSW 22:46:20 10° NW
Cosmos 1933 3.7 22:39:36 10° SSE 22:43:14 37° E 22:43:20 37° E
NOSS 3-2 (A) 4.0 22:39:36 10° SW 22:44:28 39° WNW 22:48:19 13° N
Cosmos 540 Rocket 4.4 22:44:23 10° NNW 22:49:17 49° WSW 22:54:14 10° S
Atlas Centaur 2 3.3 22:45:07 10° WSW 22:49:37 35° S 22:55:09 10° ESE
Hubble Space Telescope 2.3 22:50:32 10° WSW 22:53:51 28° S 22:55:28 20° SE
Lacrosse 5 rocket 1.8 22:51:22 10° SW 22:55:06 48° WNW 22:56:08 37° NNW
Mugunghwa Rocket 4.3 22:51:28 10° NW 22:57:51 50° NNE 23:00:25 35° ENE
USA 234 4.1 22:53:47 16° N 22:58:35 43° NW 23:04:46 10° SW
Centaur Rocket 4.0 23:01:32 10° WNW 23:03:22 23° WNW 23:03:22 23° WNW
Cosmos 1346 Rocket 4.0 23:04:13 13° NNW 23:07:15 38° W 23:10:44 10° SSW
Cosmos 1486 Rocket 4.2 23:03:32 10° SSW 23:08:45 69° WNW 23:10:47 37° N
Cosmos 1606 Rocket 3.5 23:07:21 10° S 23:11:40 79° W 23:12:11 67° NNW
Sakura Rocket 3.1 23:11:03 10° WSW 23:15:07 69° NNW 23:15:07 69° NNW
Resurs 01 Rocket 2.7 23:12:04 10° S 23:16:17 45° WSW 23:20:08 12° NNW
CSL-04 Rocket 4.2 23:12:01 10° SSE 23:15:53 40° ESE 23:15:53 40° ESE
USA 238 DEB 4.5 23:13:57 10° S 23:19:11 27° ESE 23:19:14 27° ESE
Cosmos 1777 Rocket 4.1 23:14:58 10° SSW 23:20:14 73° WNW 23:21:20 55° NNW
Cosmos 2082 Rocket 2.2 23:14:52 10° NNW 23:20:29 78° WSW 23:26:13 10° SSE
Meteor 2-20 4.3 23:15:03 10° S 23:21:13 83° E 23:22:43 54° NNE
Meteor 1-31 Rocket 3.9 23:23:25 10° S 23:26:16 38° SW 23:26:16 38° SW
Cosmos 1697 Rocket 2.8 23:21:59 10° S 23:27:22 60° ESE 23:27:22 60° ESE
CZ-3 Stage 3 2.9 23:22:07 10° WSW 23:28:59 31° S 23:29:34 30° SSE
Cosmos 841 Rocket 3.7 23:34:45 59° NW 23:35:31 69° WSW 23:40:43 10° S
Cosmos 1553 Rocket 4.1 23:33:04 10° S 23:38:27 56° SE 23:38:27 56° SE
ATLAS 2AS CENTAUR RB 4.3 22:28:51 10° W 23:42:58 47° NNW 23:46:04 40° N
BREEZE-M DEB (TANK) 4.1 23:37:34 10° SW 23:42:52 46° SSW 23:42:52 46° SSW
Meteor 2-20 Rocket 4.4 23:40:56 10° S 23:47:16 85° W 23:47:31 82° NW
SPOT 5 3.8 23:46:02 10° S 23:49:30 46° S 23:49:30 46° S
Gbstr 26 Del rocket 4.4 23:46:52 10° SW 23:49:57 37° SW 23:49:57 37° SW
COSMOS 2406 3.8 23:55:23 52° S 23:55:23 52° S 23:59:45 10° SSE
